Wind_Speed
31 29 26 24 22 19 18 17 15 14 13 13 12 12 11 11 10 10 10 9 7 6 7 8 10 11 12 13 15 16 17 18 19 19 19 20 20 21 21 22 23 24 24 25 25 25 26 26 26 26 26 26 26 26 26 27 27 26 26 25 24 24 24
34 33 29 26 24 23 22 21 19 16 15 14 13 12 12 11 11 10 10 9 7 6 5 6 8 9 10 11 12 13 14 15 16 17 18 18 19 19 20 20 21 22 23 24 24 24 25 26 26 26 27 27 27 27 27 27 28 28 28 28 27 27 27
38 35 31 27 26 26 25 24 22 20 17 15 15 14 13 13 12 12 11 10 8 6 5 5 6 7 8 9 10 11 11 12 13 15 16 16 17 17 18 18 19 20 21 22 22 23 23 24 25 26 26 27 27 27 27 27 28 28 28 28 28 28 28
41 39 34 30 28 29 29 27 25 23 20 17 17 16 16 15 14 13 12 12 10 8 6 5 5 5 7 8 8 9 9 10 11 12 13 14 14 15 16 16 16 17 18 19 20 21 21 22 23 24 25 26 26 26 26 27 27 28 28 28 28 29 29
43 42 38 35 33 33 32 30 27 25 23 20 19 18 18 16 15 14 13 12 12 10 9 7 5 5 5 6 7 7 8 8 8 9 11 12 12 12 13 13 14 15 15 16 18 19 20 20 21 22 23 24 25 25 25 25 26 27 27 28 28 29 29
43 42 41 39 38 36 34 32 29 27 25 23 21 20 19 17 16 15 14 13 12 11 11 9 7 6 5 4 4 5 6 6 6 6 7 9 10 10 11 11 12 13 14 14 15 17 18 19 20 20 21 22 23 24 24 24 24 25 26 26 27 27 28
45 43 42 41 40 38 36 34 31 29 27 25 23 21 19 18 17 16 15 14 13 12 11 9 8 8 7 5 3 2 3 5 6 5 5 6 8 9 9 10 10 11 11 12 14 15 16 17 18 19 19 20 21 22 23 23 23 23 24 25 25 26 27
46 42 42 43 42 40 38 36 34 31 30 28 25 23 21 19 18 17 16 15 14 14 12 11 10 10 9 7 5 3 3 5 6 6 6 6 8 9 9 9 10 10 10 11 12 14 15 16 17 17 18 18 19 20 21 21 21 22 22 23 24 24 25
46 42 41 44 46 44 40 38 37 34 32 31 28 25 23 21 20 19 18 17 16 16 15 14 13 12 11 10 8 6 5 6 6 6 7 8 8 9 10 9 9 9 9 9 10 12 14 15 16 16 16 17 17 17 18 19 20 20 21 21 21 22 23
47 45 43 44 46 46 44 41 39 37 35 33 31 28 26 25 23 21 20 19 18 18 18 18 17 15 14 13 10 8 7 7 6 5 6 8 8 8 9 9 9 8 7 7 8 9 11 13 14 15 15 15 15 15 16 17 18 18 19 19 19 19 20
51 51 50 47 45 47 47 44 42 39 37 36 34 31 29 28 26 25 23 21 20 20 21 20 20 18 17 15 13 10 9 9 9 8 6 7 9 9 9 8 8 8 7 6 6 7 8 10 12 13 13 13 13 13 13 14 15 16 17 17 17 17 17
55 56 56 52 46 47 48 47 45 43 40 38 37 35 33 31 30 28 26 25 24 24 23 23 22 20 19 18 15 12 11 11 11 11 9 8 9 8 8 8 8 7 7 6 5 5 6 7 9 10 10 11 11 10 10 10 11 13 14 15 15 15 15
57 59 58 54 50 50 51 51 49 47 43 41 40 38 36 34 32 31 30 29 28 27 27 26 24 22 21 20 18 15 14 13 13 13 13 12 12 9 6 6 7 7 5 4 4 4 4 5 7 8 8 8 8 7 7 7 7 8 10 12 13 13 13
62 63 60 56 53 53 55 55 53 49 47 45 42 40 39 37 35 34 33 32 32 31 30 29 28 26 24 22 20 18 17 16 15 15 15 15 15 13 10 7 7 7 7 5 4 3 3 4 5 7 7 6 6 5 5 5 4 5 5 7 9 10 11
65 65 63 59 56 54 55 57 56 52 49 48 46 44 42 41 39 38 37 36 35 34 33 32 30 30 28 25 23 22 21 19 18 17 17 17 16 15 14 12 10 9 9 10 9 6 5 6 6 6 6 6 4 3 2 2 2 2 3 4 5 6 7
66 66 64 62 60 57 56 57 57 55 52 50 49 48 46 44 43 42 41 40 38 37 36 35 33 32 31 30 28 25 24 23 22 20 19 19 18 17 16 15 14 13 12 12 12 11 9 8 7 5 5 5 3 1 2 2 1 2 2 4 5 5 5
69 68 65 63 63 61 58 58 58 57 55 53 53 52 49 47 47 46 45 43 41 40 39 37 36 35 34 34 33 30 28 26 25 24 23 22 21 19 18 17 16 17 16 14 14 14 12 12 11 10 8 6 3 5 6 5 4 5 4 4 5 6 7
71 72 69 65 65 64 61 59 59 59 58 56 55 54 51 49 49 48 48 46 43 41 40 39 39 38 37 37 37 35 33 31 29 28 27 25 23 21 20 19 17 17 17 17 17 17 16 15 16 15 14 13 12 12 12 10 8 8 7 6 6 6 7
71 72 72 69 68 67 65 62 60 60 60 59 58 57 55 53 52 51 49 47 45 44 43 42 42 42 41 41 41 40 39 37 35 32 31 29 27 25 24 22 20 19 19 19 19 19 19 19 20 20 20 20 19 17 16 15 13 11 10 10 9 8 8
73 72 72 72 71 69 68 66 63 61 61 61 62 59 56 54 54 55 54 50 47 46 45 45 46 46 46 45 44 44 44 43 41 38 35 33 31 31 29 27 25 24 23 22 21 20 20 21 22 23 23 24 23 21 22 21 17 15 14 14 13 12 11
77 75 72 72 73 72 70 67 65 63 63 63 63 61 58 54 52 55 56 53 50 48 47 47 49 51 51 49 48 48 47 46 45 43 41 38 37 36 35 33 31 29 28 27 26 24 22 22 22 23 24 24 25 26 27 25 20 19 20 19 19 18 16
81 80 76 73 72 73 72 70 68 66 65 64 63 62 61 57 54 53 54 53 51 51 50 49 49 52 54 52 51 50 50 48 48 46 44 43 42 41 40 38 36 34 33 32 31 30 28 26 25 25 26 26 26 29 32 28 23 22 24 23 23 22 22
86 85 83 78 74 73 73 72 70 68 67 66 65 64 63 61 59 57 55 53 53 53 53 53 52 54 56 55 52 52 52 52 52 49 46 45 46 46 44 43 41 39 38 37 35 35 35 33 29 29 29 29 29 32 33 31 27 25 26 26 26 25 24
91 89 88 85 79 75 74 72 70 69 68 68 67 67 66 65 64 61 59 57 56 55 56 57 57 58 59 58 54 52 51 53 53 51 47 46 49 51 50 48 46 44 43 41 39 38 39 38 36 33 32 30 30 34 35 33 29 28 29 29 28 28 27
97 94 93 92 87 81 77 74 71 69 68 68 67 67 68 68 66 64 63 61 60 59 58 58 59 61 61 61 57 55 54 55 53 52 50 49 50 52 52 51 50 48 47 46 44 43 42 43 43 42 37 33 32 36 39 37 34 34 33 31 31 32 31
102 99 98 98 95 90 85 81 76 72 70 68 68 68 68 69 69 68 66 63 62 62 61 60 61 62 61 60 58 58 60 61 60 57 56 57 57 55 54 54 54 52 51 51 50 49 48 48 48 48 45 41 39 40 41 38 37 37 36 36 36 36 35
108 104 102 102 101 98 94 90 85 80 75 72 70 70 69 69 70 71 69 67 65 64 64 65 65 64 63 62 61 60 62 64 64 63 61 62 63 62 61 59 58 56 55 54 54 54 53 52 51 50 49 48 47 46 45 43 41 39 39 40 41 41 40
112 110 108 107 107 105 102 99 95 90 85 80 76 74 73 72 72 72 71 71 69 68 68 69 68 66 65 64 65 65 65 65 65 66 66 64 65 65 65 64 62 61 59 57 56 56 56 56 55 54 53 52 51 50 50 50 49 47 45 45 45 46 46
113 113 113 112 111 111 108 105 102 99 96 91 86 81 78 77 76 73 71 71 73 72 72 71 70 69 68 68 68 70 70 69 68 69 69 67 66 66 68 67 66 64 62 60 60 60 59 59 59 59 59 58 57 55 54 55 55 54 54 53 51 51 51
112 114 116 116 116 115 113 110 107 105 103 101 97 91 85 82 80 77 73 72 73 74 74 72 71 71 71 71 71 72 73 74 74 73 72 71 69 68 68 68 67 66 65 64 64 64 63 63 62 62 63 63 63 62 61 60 60 59 59 58 57 57 56
113 114 116 117 119 119 117 115 113 111 109 107 106 102 96 90 86 83 79 76 75 75 76 75 74 73 74 73 73 73 75 76 76 76 76 75 73 72 71 71 70 69 68 69 69 68 67 66 66 66 66 66 66 65 64 63 63 62 61 60 60 60 60
110 112 114 115 118 120 121 120 119 117 115 112 110 109 106 101 96 92 88 84 81 79 78 77 77 77 77 76 75 75 76 77 77 77 78 77 77 77 76 76 76 75 74 73 74 73 71 70 69 69 69 69 69 68 67 66 65 64 63 62 61 62 63
106 108 109 111 114 117 120 122 122 122 121 118 116 113 112 109 106 102 98 95 91 87 84 82 81 81 81 81 81 79 78 77 77 78 79 80 81 81 80 80 80 79 78 78 78 77 76 74 73 73 73 73 72 72 71 70 68 67 66 65 65 64 65
104 105 105 107 110 114 116 119 121 123 123 123 121 119 117 115 112 110 107 105 102 98 94 91 88 86 85 86 86 86 85 83 81 80 81 82 83 84 85 84 83 82 81 81 81 81 79 78 77 76 76 76 76 76 75 74 73 72 70 70 69 69 69
103 105 107 107 108 111 113 114 117 120 122 124 125 124 122 121 118 116 113 112 110 108 105 101 98 95 93 91 91 91 91 90 88 87 86 84 83 83 84 86 86 86 85 84 83 83 83 81 80 79 79 79 79 79 78 77 77 77 75 75 75 74 74
103 105 108 109 110 110 112 113 114 115 118 122 125 126 126 126 125 123 120 118 116 115 114 112 109 106 102 100 98 97 96 95 94 93 92 91 89 86 85 83 84 86 87 87 86 85 84 83 83 82 81 81 82 83 81 81 81 80 80 79 79 79 79
104 105 106 108 110 112 113 114 115 115 116 118 122 125 127 128 128 128 127 125 122 120 119 119 118 117 114 111 108 106 104 102 100 98 97 96 95 95 93 90 87 86 87 88 88 88 87 86 86 86 86 85 85 86 85 84 83 83 83 84 84 83 83
105 106 107 108 109 111 113 115 116 117 117 118 120 121 124 126 127 128 128 129 128 127 125 123 122 123 123 121 119 116 113 111 108 106 104 102 101 100 99 98 96 94 92 91 90 91 92 92 92 92 91 91 91 91 91 90 89 89 89 89 89 88 88
Wind_Direction
222 223 224 226 226 227 232 235 233 221 206 196 183 172 167 163 156 146 137 132 125 112 100 93 87 84 86 88 88 89 89 89 88 86 86 85 84 84 83 83 82 81 80 80 80 79 79 79 79 80 81 80 79 79 79 79 80 80 80 81 81 80 80
221 222 222 225 226 226 230 234 234 228 213 202 194 183 176 172 167 161 152 146 142 133 114 100 94 89 86 85 84 86 88 90 90 89 87 85 84 83 83 83 83 83 82 81 81 81 81 80 80 80 81 81 80 79 80 80 80 81 81 82 83 82 83
220 221 220 223 227 227 228 231 232 230 220 207 201 194 189 182 175 172 167 160 156 152 137 117 102 96 90 87 85 83 84 87 90 90 88 86 84 83 83 83 82 82 83 83 83 83 83 82 82 81 81 81 81 80 81 81 82 82 83 83 84 84 84
219 220 217 218 225 228 227 228 229 229 224 212 206 202 199 195 184 178 175 171 169 166 161 148 129 112 103 95 90 86 84 83 86 90 90 86 84 82 81 82 82 82 82 84 84 83 83 84 83 83 82 82 82 81 81 81 82 82 83 83 84 85 85
220 220 218 217 221 224 223 224 226 227 225 217 210 207 206 203 196 187 182 180 177 176 175 174 166 148 127 110 101 96 91 84 80 86 93 92 87 85 83 81 81 82 81 81 83 83 82 83 84 84 83 82 82 81 80 80 80 81 82 83 84 85 86
220 221 221 221 223 224 222 222 224 226 226 221 215 212 210 209 206 198 191 188 186 186 187 186 181 172 163 148 124 113 108 106 97 91 97 101 97 90 88 85 82 81 82 81 81 81 81 82 82 83 83 83 82 81 80 79 79 80 80 82 83 85 86
221 222 222 223 225 227 224 221 224 225 225 225 219 215 214 212 213 211 205 199 195 198 201 195 189 187 188 193 190 162 142 137 135 126 118 120 114 103 95 90 86 82 81 83 84 83 81 79 80 81 81 82 81 80 79 78 78 79 80 81 83 84 86
219 219 222 224 224 226 225 222 223 224 225 225 222 218 216 215 216 217 216 212 207 209 212 209 207 208 210 214 219 218 191 175 169 156 150 148 133 120 108 94 87 81 78 80 84 86 85 81 79 79 78 79 79 79 78 77 77 77 79 81 83 85 87
216 215 221 226 226 225 225 223 222 223 224 225 223 221 218 217 217 218 220 220 218 218 219 219 219 223 229 233 234 236 223 207 194 175 170 170 149 129 120 106 93 86 79 77 80 84 87 86 83 81 79 78 77 77 77 77 76 76 76 79 82 86 89
215 211 215 222 226 224 223 223 221 221 223 224 223 221 220 219 218 220 223 224 225 225 225 223 223 226 234 239 243 246 241 227 210 190 179 179 171 154 138 122 110 103 92 83 81 83 86 88 87 85 82 81 79 78 78 78 79 78 77 77 80 84 88
213 212 213 217 223 225 223 223 222 220 220 222 223 222 222 221 220 220 223 226 228 231 231 230 227 226 231 236 240 242 241 236 223 210 195 186 187 182 172 160 142 126 113 100 89 88 91 90 89 86 83 81 79 78 78 80 83 84 84 83 82 83 87
213 213 215 217 220 225 225 224 222 221 219 218 221 222 222 222 222 222 223 225 228 232 236 237 234 230 230 231 234 235 235 235 229 220 210 202 203 197 187 186 178 157 135 118 106 101 103 103 100 95 87 81 77 74 74 76 81 87 90 92 92 91 92
215 214 216 218 220 223 225 224 222 222 221 219 219 221 222 223 224 225 225 226 229 232 235 240 240 236 232 231 232 234 234 233 232 229 220 212 215 219 207 186 183 186 176 147 130 123 124 125 118 112 103 93 82 71 66 68 75 84 91 96 100 101 103
220 219 219 219 220 223 226 226 224 223 223 223 221 221 222 224 226 228 229 229 230 232 234 237 240 241 238 234 233 233 233 233 232 233 230 222 220 224 224 205 184 194 212 221 212 175 166 178 153 132 125 117 101 80 60 58 70 86 95 100 104 108 111
221 222 222 220 220 223 226 228 227 225 225 225 224 224 223 224 226 229 231 232 233 234 235 235 238 241 242 240 237 233 230 229 230 230 230 229 224 223 224 221 212 211 220 228 231 224 211 205 186 160 152 142 123 94 54 35 47 105 130 130 125 123 123
217 221 223 221 219 222 226 228 228 227 228 228 227 227 226 226 227 229 231 234 236 237 237 236 237 239 241 242 241 237 232 228 228 228 228 229 227 224 224 224 223 225 228 230 233 234 232 225 220 216 197 170 140 38 326 311 287 232 188 174 169 166 160
212 216 220 221 219 221 225 228 229 228 229 230 229 229 229 229 230 231 231 233 236 240 241 240 239 239 240 242 242 241 238 233 230 229 229 229 229 227 226 226 227 229 232 232 234 237 240 237 238 245 239 224 247 297 298 287 262 242 223 201 193 189 187
210 212 217 220 220 221 223 226 228 228 229 230 231 231 232 232 232 232 232 232 235 239 242 242 241 240 240 241 243 243 241 238 235 233 232 231 231 232 232 232 233 235 236 237 236 237 241 243 245 248 249 251 262 276 280 276 261 243 231 222 213 204 199
209 210 214 217 219 220 223 225 227 227 229 230 231 233 233 232 232 231 231 231 233 237 241 243 242 241 241 241 242 243 243 242 239 237 235 234 234 236 237 237 240 242 243 242 241 239 241 244 248 252 255 258 263 267 268 265 256 245 235 232 230 224 216
209 209 211 214 216 219 221 224 225 225 226 228 230 232 233 232 232 233 232 232 235 238 243 245 244 242 241 241 241 242 243 244 243 241 239 238 238 238 238 238 239 242 246 246 244 242 243 247 249 252 255 257 259 260 260 258 252 244 238 235 236 236 231
209 210 210 211 214 216 218 221 223 223 224 227 229 229 230 230 232 235 236 235 236 239 243 246 246 244 243 242 242 242 243 244 244 244 243 241 241 240 240 239 238 240 244 247 246 244 246 250 251 250 252 256 258 256 255 252 247 243 241 238 234 232 232
211 211 212 212 212 213 216 219 221 222 224 227 228 228 228 227 228 232 234 234 235 238 240 241 243 244 243 243 243 243 243 243 244 244 244 243 244 243 242 241 241 241 243 246 247 247 248 250 249 244 242 245 248 249 250 250 244 240 242 242 237 232 230
216 214 214 214 213 212 214 217 220 221 223 225 227 229 230 230 230 230 232 233 235 238 239 238 239 241 242 243 243 242 243 243 242 242 242 243 245 246 244 242 241 241 242 245 249 249 249 250 249 246 242 241 241 243 248 249 246 241 241 241 239 235 233
220 219 216 216 216 214 213 216 219 220 222 224 226 228 229 231 232 231 232 234 237 239 239 238 238 241 242 242 241 241 242 243 242 241 240 241 244 246 245 243 242 241 242 245 248 249 249 248 247 246 246 245 246 247 249 248 247 245 243 241 238 237 237
222 223 221 220 219 217 215 216 217 219 220 221 222 224 226 228 230 229 229 231 234 237 239 238 238 240 243 244 243 242 242 242 241 239 236 236 239 242 242 242 243 243 243 244 245 245 245 245 243 242 242 242 244 247 249 248 246 246 246 242 238 238 239
224 225 225 225 224 223 220 218 217 217 218 218 218 219 221 222 223 224 225 226 228 231 234 236 238 239 241 243 244 244 243 242 242 240 237 235 236 239 241 242 243 244 244 245 245 245 244 244 243 241 241 240 241 245 249 249 249 248 249 246 241 238 239
227 227 228 229 230 229 227 224 220 219 218 217 216 216 216 215 216 218 220 221 223 226 229 233 235 237 239 240 241 242 243 243 242 240 238 237 238 239 241 242 244 245 245 244 244 245 245 245 245 243 242 241 241 244 248 250 250 249 249 249 245 240 238
228 229 230 231 233 234 233 230 226 223 221 220 218 216 215 214 213 215 218 219 220 223 227 230 233 235 237 237 237 237 239 241 242 241 239 238 238 239 241 242 244 245 245 243 243 243 244 245 246 246 245 244 243 243 246 248 250 250 249 250 249 245 241
228 230 231 232 233 234 234 233 231 228 226 224 222 219 217 216 215 215 217 218 219 221 225 228 231 233 234 235 236 236 237 238 240 240 239 238 238 239 241 242 243 244 245 244 243 243 244 246 247 248 248 248 247 246 246 247 249 251 251 252 251 249 246
228 228 230 231 232 233 233 234 234 233 231 230 228 225 222 219 217 217 217 218 219 220 223 225 228 231 232 233 234 236 237 237 238 238 238 238 238 239 240 241 241 243 245 246 245 244 244 246 248 250 251 252 251 249 248 248 249 251 252 253 252 251 250
229 229 229 230 231 232 232 233 235 236 235 234 234 233 229 225 222 220 220 220 219 220 221 223 224 226 229 231 233 236 238 239 240 240 240 241 242 243 242 241 243 246 248 248 247 246 245 245 246 248 251 253 253 252 250 249 249 250 251 252 252 252 251
231 231 230 231 231 232 232 232 233 235 236 236 236 236 235 233 229 226 224 223 222 222 222 222 223 224 226 228 231 235 237 239 240 241 242 243 245 245 244 244 246 249 250 249 248 247 246 246 246 247 249 251 253 252 251 250 250 250 250 250 251 251 251
233 233 233 232 233 233 233 232 233 234 235 237 237 237 237 237 235 233 230 228 226 225 224 224 224 225 226 227 229 232 235 237 239 240 242 243 244 245 245 245 246 248 249 248 247 247 246 246 247 247 247 249 250 251 251 251 250 250 250 250 250 250 250
233 233 234 233 233 233 234 234 233 233 234 236 237 238 238 238 238 237 235 233 231 230 228 227 227 227 228 228 229 231 232 234 236 238 240 242 244 245 246 245 246 246 247 247 247 247 246 246 246 247 247 247 248 249 250 250 250 251 251 251 251 250 250
234 234 234 234 234 234 235 234 234 234 235 235 236 237 238 239 239 239 238 237 235 234 233 231 230 229 230 231 231 232 233 234 235 236 237 239 241 244 246 247 247 246 246 246 247 247 246 246 246 246 246 246 246 247 247 248 249 250 251 251 251 252 252
235 235 235 236 235 235 236 236 235 235 235 235 235 236 237 238 239 239 239 239 238 237 237 236 234 233 233 233 233 233 234 236 237 238 239 239 239 240 242 245 246 246 246 245 245 245 246 246 245 245 246 246 246 246 246 247 247 249 250 250 250 251 252
236 236 237 237 236 236 236 236 236 235 235 236 236 236 236 236 237 238 239 239 239 239 239 238 238 238 238 237 237 236 237 237 238 238 239 240 240 240 240 241 243 245 246 245 245 244 244 245 245 245 245 246 245 246 247 247 247 248 249 249 250 250 251
236 237 237 238 238 238 237 237 237 236 236 236 237 237 237 237 237 237 238 238 239 239 240 240 239 240 240 241 241 241 240 240 240 240 240 241 241 241 241 241 242 243 244 245 245 245 245 245 246 246 245 245 246 246 247 248 249 249 250 250 250 251 251
Height
11016 11018 11020 11021 11023 11024 11025 11026 11028 11029 11029 11030 11031 11031 11032 11032 11032 11032 11032 11032 11032 11032 11031 11031 11031 11030 11030 11029 11029 11028 11027 11026 11025 11025 11024 11023 11022 11021 11021 11020 11020 11019 11019 11018 11018 11017 11016 11015 11014 11013 11012 11011 11011 11010 11009 11008 11007 11007 11006 11005 11005 11005 11004
11013 11015 11017 11019 11021 11023 11024 11025 11027 11028 11029 11030 11030 11031 11032 11032 11032 11032 11032 11032 11033 11033 11033 11032 11032 11032 11032 11031 11031 11031 11030 11029 11028 11028 11027 11026 11025 11024 11024 11023 11023 11022 11022 11022 11021 11020 11019 11018 11017 11017 11016 11015 11014 11013 11012 11011 11010 11010 11009 11009 11008 11008 11007
11010 11012 11015 11018 11019 11021 11022 11024 11025 11027 11028 11029 11030 11030 11031 11032 11032 11032 11032 11032 11033 11033 11033 11033 11033 11033 11033 11033 11033 11033 11033 11032 11031 11030 11030 11029 11028 11027 11027 11026 11026 11025 11025 11024 11023 11022 11022 11021 11020 11019 11018 11017 11017 11016 11015 11014 11013 11013 11012 11011 11011 11010 11010
11007 11010 11013 11016 11017 11019 11020 11022 11023 11025 11027 11027 11028 11029 11030 11031 11032 11032 11032 11033 11033 11033 11034 11034 11034 11034 11034 11034 11034 11034 11035 11034 11034 11033 11032 11032 11031 11030 11029 11029 11028 11028 11027 11027 11026 11025 11024 11024 11023 11022 11021 11020 11019 11018 11018 11017 11016 11015 11015 11014 11014 11013 11013
11004 11007 11010 11013 11015 11016 11018 11020 11021 11023 11025 11026 11027 11028 11029 11030 11031 11032 11033 11033 11033 11033 11034 11034 11034 11034 11035 11035 11035 11035 11036 11036 11036 11035 11034 11034 11034 11033 11032 11031 11031 11030 11030 11029 11028 11028 11027 11026 11025 11024 11023 11023 11022 11021 11021 11020 11019 11018 11018 11017 11017 11016 11016
11002 11005 11008 11010 11012 11014 11016 11018 11020 11022 11024 11025 11025 11026 11027 11029 11031 11032 11032 11033 11033 11034 11034 11034 11035 11035 11035 11035 11035 11035 11036 11036 11036 11036 11036 11035 11035 11035 11034 11034 11033 11033 11032 11032 11031 11030 11030 11028 11027 11027 11026 11025 11025 11024 11023 11023 11022 11021 11021 11020 11020 11019 11019
10999 11002 11005 11007 11009 11012 11014 11016 11018 11020 11022 11023 11024 11025 11026 11028 11030 11031 11032 11032 11033 11034 11034 11034 11035 11035 11035 11035 11035 11035 11036 11036 11037 11037 11037 11037 11036 11036 11036 11036 11035 11035 11035 11034 11033 11033 11032 11031 11030 11029 11029 11028 11028 11027 11027 11026 11025 11024 11024 11023 11023 11022 11022
10996 10999 11002 11004 11006 11009 11011 11014 11016 11018 11019 11021 11023 11024 11025 11027 11028 11030 11031 11032 11033 11033 11033 11034 11034 11035 11035 11035 11035 11035 11036 11036 11037 11037 11038 11037 11037 11037 11037 11038 11038 11037 11037 11036 11036 11035 11034 11034 11033 11032 11032 11031 11031 11030 11030 11029 11029 11028 11027 11027 11026 11026 11025
10994 10998 10999 11000 11002 11005 11008 11011 11013 11015 11017 11019 11021 11022 11023 11025 11026 11028 11029 11030 11031 11032 11032 11033 11033 11034 11034 11035 11035 11035 11036 11036 11037 11037 11038 11038 11038 11038 11038 11039 11039 11039 11039 11039 11038 11037 11037 11036 11036 11035 11034 11034 11033 11033 11033 11033 11032 11032 11031 11031 11030 11029 11029
10992 10995 10995 10995 10997 11001 11004 11006 11009 11012 11014 11016 11018 11020 11021 11022 11024 11026 11027 11028 11030 11030 11030 11031 11032 11033 11034 11034 11035 11036 11036 11037 11037 11038 11038 11038 11039 11039 11039 11039 11040 11040 11040 11040 11040 11040 11039 11038 11038 11037 11037 11036 11036 11036 11036 11035 11035 11035 11035 11034 11034 11034 11033
10988 10990 10990 10991 10993 10996 10999 11003 11006 11009 11011 11013 11015 11017 11018 11020 11022 11023 11025 11026 11027 11028 11028 11029 11030 11031 11032 11033 11034 11035 11036 11036 11037 11038 11038 11038 11039 11039 11040 11040 11040 11040 11041 11042 11042 11041 11041 11040 11040 11040 11039 11039 11038 11038 11038 11038 11037 11037 11037 11037 11037 11037 11037
10982 10984 10985 10988 10990 10992 10996 11000 11002 11004 11007 11009 11011 11013 11015 11017 11019 11020 11022 11023 11024 11025 11026 11027 11029 11030 11030 11032 11033 11034 11035 11035 11036 11037 11037 11038 11038 11039 11040 11040 11040 11041 11041 11042 11042 11043 11043 11042 11041 11041 11041 11041 11041 11041 11040 11040 11040 11040 11039 11039 11039 11039 11039
10976 10978 10981 10984 10986 10988 10990 10993 10997 11000 11003 11006 11008 11010 11012 11014 11016 11017 11018 11020 11021 11023 11024 11025 11027 11028 11029 11030 11031 11032 11033 11034 11035 11035 11036 11037 11038 11038 11039 11040 11041 11041 11042 11042 11043 11043 11044 11043 11043 11042 11043 11043 11042 11043 11043 11042 11042 11042 11042 11041 11041 11041 11041
10972 10973 10976 10980 10982 10983 10985 10988 10992 10996 10999 11001 11004 11007 11009 11011 11012 11014 11015 11017 11018 11019 11021 11023 11024 11025 11027 11028 11029 11030 11031 11032 11033 11034 11035 11036 11037 11038 11039 11039 11040 11041 11042 11043 11043 11044 11044 11045 11044 11044 11044 11044 11044 11044 11044 11044 11044 11044 11044 11043 11043 11043 11043
10966 10969 10971 10975 10978 10978 10980 10983 10987 10992 10995 10998 11000 11003 11005 11008 11009 11010 11012 11013 11015 11016 11018 11020 11022 11023 11025 11026 11027 11028 11029 11030 11031 11032 11033 11034 11036 11037 11038 11039 11040 11041 11042 11043 11043 11044 11045 11045 11045 11045 11045 11045 11045 11045 11045 11045 11045 11045 11045 11044 11044 11044 11044
10960 10963 10966 10969 10973 10974 10975 10978 10983 10987 10990 10994 10996 10998 11001 11004 11005 11007 11009 11010 11012 11013 11014 11016 11019 11021 11022 11023 11024 11025 11026 11028 11029 11030 11031 11032 11034 11036 11037 11038 11039 11040 11041 11042 11043 11044 11044 11045 11045 11046 11046 11045 11046 11046 11046 11046 11046 11046 11045 11045 11045 11045 11045
10954 10956 10959 10964 10968 10970 10971 10973 10977 10982 10986 10989 10991 10993 10996 10999 11000 11002 11005 11007 11008 11010 11011 11014 11016 11018 11019 11020 11022 11023 11024 11025 11026 11028 11029 11030 11032 11034 11035 11037 11038 11039 11040 11041 11042 11043 11044 11044 11045 11045 11045 11045 11046 11046 11047 11047 11047 11046 11046 11045 11045 11045 11044
10948 10950 10953 10958 10962 10965 10967 10968 10971 10976 10980 10983 10985 10988 10991 10994 10995 10998 11000 11003 11005 11007 11008 11011 11013 11014 11016 11017 11018 11020 11021 11023 11024 11025 11027 11028 11030 11032 11034 11036 11037 11038 11039 11040 11041 11042 11042 11043 11043 11044 11044 11044 11045 11045 11046 11046 11046 11046 11046 11045 11045 11044 11044
10943 10945 10948 10952 10956 10959 10962 10963 10966 10969 10974 10977 10979 10982 10985 10988 10990 10992 10995 10998 11001 11002 11004 11006 11008 11010 11011 11012 11014 11016 11018 11019 11021 11022 11024 11026 11028 11030 11032 11034 11035 11037 11038 11038 11039 11040 11040 11041 11041 11041 11042 11042 11043 11043 11044 11044 11045 11045 11045 11045 11044 11044 11043
10937 10940 10942 10946 10950 10954 10957 10959 10961 10963 10967 10970 10973 10976 10979 10982 10984 10986 10989 10993 10996 10999 11001 11003 11004 11004 11005 11007 11009 11011 11013 11015 11017 11019 11021 11023 11025 11027 11029 11031 11033 11034 11035 11036 11037 11037 11037 11038 11038 11038 11039 11039 11040 11041 11040 11041 11042 11043 11043 11043 11043 11043 11042
10931 10934 10937 10940 10943 10948 10952 10954 10955 10956 10959 10963 10967 10971 10974 10977 10979 10980 10984 10988 10991 10993 10996 10998 10998 10999 11000 11002 11004 11006 11009 11012 11014 11016 11019 11021 11022 11023 11025 11027 11029 11031 11033 11034 11034 11034 11035 11035 11035 11035 11036 11036 11037 11036 11035 11037 11039 11040 11040 11041 11041 11041 11041
10924 10928 10931 10934 10938 10942 10945 10947 10949 10950 10953 10957 10961 10965 10969 10972 10974 10974 10977 10981 10984 10986 10988 10990 10992 10993 10993 10996 10998 11001 11004 11007 11009 11012 11016 11018 11018 11019 11021 11023 11025 11027 11029 11030 11031 11032 11032 11032 11031 11031 11032 11033 11033 11031 11030 11032 11036 11037 11037 11038 11038 11039 11039
10916 10920 10924 10928 10933 10936 10938 10940 10943 10945 10947 10951 10955 10959 10963 10966 10968 10969 10970 10973 10977 10980 10982 10983 10985 10986 10986 10989 10992 10995 10998 11001 11004 11008 11013 11015 11015 11014 11016 11018 11020 11023 11024 11026 11029 11029 11028 11028 11029 11029 11028 11029 11029 11027 11025 11028 11032 11034 11034 11035 11035 11036 11036
10906 10911 10917 10922 10926 10929 10931 10933 10936 10939 10941 10944 10948 10953 10957 10959 10962 10964 10965 10966 10969 10973 10975 10976 10978 10979 10979 10982 10986 10989 10992 10995 10999 11004 11009 11011 11009 11007 11008 11011 11014 11017 11020 11022 11024 11026 11026 11026 11027 11027 11028 11029 11028 11024 11023 11026 11028 11030 11031 11032 11032 11033 11033
10896 10901 10907 10913 10917 10921 10924 10927 10930 10933 10936 10939 10942 10946 10949 10952 10955 10956 10957 10959 10962 10965 10967 10970 10971 10972 10973 10976 10980 10983 10985 10987 10992 10997 11001 11001 10999 10998 11001 11005 11008 11011 11014 11016 11019 11021 11022 11022 11022 11022 11024 11026 11024 11020 11019 11022 11024 11025 11027 11028 11029 11029 11029
10888 10892 10897 10902 10907 10911 10915 10919 10922 10926 10929 10932 10936 10939 10942 10945 10947 10948 10949 10951 10954 10957 10960 10962 10963 10965 10967 10970 10973 10975 10976 10978 10983 10987 10990 10991 10990 10991 10994 10998 11001 11005 11008 11010 11011 11014 11015 11015 11015 11017 11018 11019 11018 11016 11016 11018 11020 11021 11022 11024 11025 11025 11025
10881 10886 10890 10892 10895 10900 10904 10908 10912 10917 10921 10925 10928 10931 10933 10936 10937 10938 10940 10943 10946 10949 10953 10954 10956 10958 10960 10963 10964 10965 10966 10969 10972 10977 10980 10982 10983 10985 10988 10991 10994 10997 11000 11003 11005 11006 11008 11008 11009 11011 11012 11012 11013 11012 11012 11014 11015 11017 11018 11018 11019 11020 11020
10873 10877 10879 10879 10881 10884 10889 10894 10901 10907 10911 10915 10918 10921 10923 10926 10928 10929 10931 10934 10938 10941 10944 10947 10949 10951 10953 10955 10955 10956 10958 10960 10963 10966 10970 10973 10975 10978 10980 10983 10986 10989 10992 10995 10997 10999 11001 11002 11002 11004 11005 11006 11008 11009 11009 11009 11010 11012 11013 11014 11015 11015 11015
10858 10861 10863 10865 10868 10870 10875 10882 10889 10895 10899 10903 10906 10910 10914 10917 10919 10921 10924 10927 10930 10933 10936 10939 10941 10943 10945 10946 10946 10946 10949 10952 10954 10956 10959 10963 10966 10969 10971 10974 10978 10981 10984 10987 10989 10992 10994 10995 10995 10996 10997 10999 11001 11003 11004 11004 11004 11005 11007 11008 11009 11010 11010
10840 10846 10850 10854 10857 10860 10867 10873 10879 10884 10888 10891 10895 10900 10905 10909 10912 10914 10916 10919 10923 10925 10928 10931 10933 10933 10935 10936 10936 10937 10939 10942 10944 10947 10950 10953 10956 10959 10962 10966 10969 10972 10974 10977 10980 10983 10985 10987 10988 10989 10990 10991 10993 10995 10996 10997 10998 10999 10999 11001 11002 11003 11004
10829 10837 10840 10843 10847 10851 10857 10862 10866 10871 10875 10880 10885 10890 10896 10901 10904 10906 10908 10912 10915 10918 10920 10922 10923 10923 10925 10928 10929 10930 10930 10933 10936 10939 10941 10944 10947 10950 10954 10958 10961 10963 10966 10968 10970 10973 10976 10978 10979 10980 10981 10983 10984 10986 10988 10989 10990 10991 10991 10993 10994 10995 10997
10821 10827 10831 10835 10838 10841 10846 10851 10854 10858 10861 10867 10873 10878 10883 10888 10893 10896 10900 10903 10906 10909 10911 10912 10913 10914 10916 10919 10921 10922 10922 10924 10928 10931 10932 10935 10938 10941 10945 10949 10952 10955 10957 10959 10961 10963 10965 10968 10970 10971 10972 10974 10975 10977 10978 10980 10981 10982 10983 10984 10986 10987 10988
10810 10815 10821 10825 10828 10831 10836 10841 10845 10849 10852 10856 10861 10865 10870 10875 10880 10884 10888 10892 10895 10898 10900 10902 10904 10905 10907 10909 10910 10912 10913 10916 10919 10922 10924 10925 10928 10931 10935 10938 10941 10944 10948 10950 10951 10953 10956 10958 10960 10961 10963 10964 10966 10968 10969 10971 10972 10972 10974 10976 10978 10979 10980
10799 10803 10807 10810 10813 10817 10822 10828 10834 10838 10842 10845 10849 10852 10857 10862 10867 10871 10875 10879 10883 10886 10889 10891 10893 10895 10897 10899 10899 10901 10903 10905 10908 10912 10914 10916 10919 10920 10923 10927 10930 10934 10937 10938 10940 10943 10946 10948 10950 10951 10953 10955 10957 10958 10960 10962 10962 10962 10965 10968 10969 10970 10970
10785 10790 10793 10795 10800 10805 10810 10815 10820 10824 10828 10832 10836 10840 10844 10849 10854 10858 10862 10866 10870 10873 10876 10879 10881 10883 10886 10888 10889 10891 10893 10895 10897 10900 10903 10907 10910 10911 10912 10915 10919 10922 10925 10927 10930 10933 10935 10937 10939 10941 10943 10946 10946 10947 10950 10952 10951 10953 10956 10958 10958 10960 10962
10771 10775 10778 10781 10787 10794 10798 10802 10807 10811 10814 10818 10822 10827 10831 10835 10839 10844 10848 10852 10857 10860 10863 10866 10869 10871 10874 10876 10878 10881 10883 10885 10888 10890 10892 10896 10900 10900 10901 10905 10908 10911 10913 10915 10919 10922 10924 10925 10927 10929 10933 10935 10935 10936 10940 10942 10941 10942 10945 10946 10947 10949 10951
10759 10763 10765 10769 10775 10780 10784 10788 10793 10797 10800 10802 10805 10809 10814 10819 10824 10829 10833 10838 10842 10846 10850 10853 10856 10859 10861 10864 10866 10869 10872 10875 10877 10880 10882 10886 10889 10889 10891 10895 10898 10899 10901 10904 10908 10911 10912 10914 10915 10918 10922 10924 10924 10925 10929 10931 10930 10931 10934 10935 10936 10938 10939
10749 10751 10754 10758 10762 10766 10771 10775 10779 10782 10785 10788 10791 10795 10801 10806 10810 10815 10820 10824 10828 10832 10836 10840 10843 10846 10849 10851 10854 10857 10860 10863 10866 10869 10872 10875 10877 10878 10880 10884 10887 10889 10890 10892 10895 10898 10900 10903 10904 10906 10909 10912 10913 10913 10917 10920 10920 10920 10922 10923 10924 10926 10927